Probability
0 0 0 0 0 0 0 0 0 0 0 0 0 0 0 0 0 0 0 0 0 0 0 0 0 0 0 0 0 0 0 0 0 0 0 0 0 0 0 0 0 0 0 0 0 0 0 0 0
0 0 0 0 0 0 0 0 0 0 0 0 0 0 0 0 0 0 0 0 0 0 0 0 0 0 0 0 0 0 0 0 0 0 0 0 0 0 0 0 0 0 0 0 0 0 0 0 0
0 0 0 0 0 0 0 0 0 0 0 0 0 0 0 0 0 0 0 0 0 0 0 0 0 1 1 1 0 0 0 0 0 0 0 0 0 0 0 0 0 0 0 0 0 0 0 0 0
0 0 0 0 0 0 0 0 0 0 0 0 0 0 0 0 0 0 0 0 0 0 0 0 0 2 2 1 0 0 0 0 0 0 0 0 0 0 0 0 0 0 0 0 0 0 0 0 0
0 0 0 0 0 0 0 0 0 0 0 0 0 0 0 0 0 0 0 0 0 0 0 0 0 1 2 1 0 0 0 0 0 0 0 0 0 0 0 0 0 0 0 0 0 0 0 0 0
0 0 0 0 0 0 0 0 0 0 0 0 0 0 0 0 0 0 0 0 0 0 0 0 0 1 2 2 1 1 1 0 0 0 0 0 0 0 0 0 0 0 0 0 0 0 0 0 0
0 0 0 0 0 0 0 0 0 0 0 0 0 0 0 0 0 0 0 0 0 0 0 0 0 0 1 1 1 2 1 0 0 0 0 0 0 0 0 0 0 0 0 0 0 0 0 0 0
0 0 0 0 0 0 0 0 0 0 0 0 0 0 0 0 0 0 1 1 1 1 0 0 0 0 0 0 1 1 1 0 0 0 0 0 0 0 0 0 0 0 0 0 0 0 0 0 0
0 0 0 0 0 0 0 0 0 0 0 0 1 1 1 0 0 0 1 2 2 2 1 0 0 0 0 0 0 0 0 0 0 0 0 0 0 0 0 0 0 0 0 0 0 0 0 0 0
0 0 0 0 0 0 0 0 0 0 0 0 1 2 1 0 0 0 1 1 3 2 1 0 0 0 0 0 0 0 0 0 0 0 0 0 0 0 0 0 0 0 0 0 0 0 0 0 0
0 0 0 0 0 0 0 0 0 0 0 0 1 1 1 0 0 0 0 1 2 2 1 0 0 0 0 0 0 0 0 0 0 0 0 0 0 0 0 0 0 0 0 0 0 0 0 0 0
0 0 0 0 0 0 0 0 0 0 0 0 0 0 0 0 0 0 0 0 1 1 0 0 0 0 0 0 0 0 0 0 0 0 0 0 0 0 0 0 0 0 0 0 0 0 0 0 0
0 0 0 0 0 0 0 0 0 0 0 0 0 0 0 0 0 0 0 0 0 0 0 0 0 0 0 0 0 0 0 0 0 0 0 0 0 0 0 0 0 0 0 0 0 0 0 0 0
0 0 0 0 0 0 0 0 0 0 0 0 0 0 0 0 0 0 0 0 0 0 0 0 0 0 0 0 0 0 0 0 0 0 0 0 0 0 0 0 0 0 0 0 0 0 0 0 0
0 0 0 0 0 0 0 0 0 0 0 0 0 0 0 0 0 0 0 0 0 0 0 0 0 0 0 0 0 0 0 0 0 0 0 0 0 0 0 0 0 0 0 0 0 0 0 0 0
0 0 0 0 0 0 0 0 0 0 0 0 0 0 0 0 0 0 0 0 0 0 0 0 0 0 0 0 0 0 0 0 0 0 0 0 0 0 0 0 0 0 0 0 0 0 0 0 0
0 0 0 0 0 0 0 0 0 0 0 0 0 0 0 0 0 0 0 0 0 0 0 0 0 0 0 0 1 1 1 0 0 0 0 0 0 0 0 0 0 0 0 0 0 0 0 0 0
0 0 0 0 0 0 0 0 0 0 0 0 0 0 0 0 0 0 0 0 0 0 0 0 0 0 0 0 1 1 1 0 0 0 0 0 0 0 0 0 0 0 0 0 0 0 0 0 0
0 0 0 0 0 0 0 0 0 0 0 0 0 0 0 0 0 0 0 0 0 0 0 0 0 0 0 0 1 1 0 0 0 0 0 0 0 0 0 0 0 0 0 0 0 0 0 0 0
0 0 0 0 0 0 0 0 0 0 0 0 0 0 0 0 0 0 0 0 0 0 0 0 0 0 0 0 0 0 0 0 0 0 0 0 0 0 0 0 0 0 0 0 0 0 0 0 0
0 0 0 0 0 0 0 0 0 0 0 0 0 0 0 0 0 0 0 0 0 0 0 0 0 0 0 0 0 0 0 0 0 0 0 0 0 0 0 0 0 0 0 0 0 0 0 0 0
0 0 0 0 0 0 0 0 0 0 0 0 0 0 0 0 0 0 0 0 0 0 0 0 0 0 0 0 0 0 1 1 1 0 0 0 0 0 0 0 0 0 0 0 0 0 0 0 0
0 0 0 0 0 0 0 0 0 0 0 0 0 0 0 0 0 0 0 0 0 0 0 0 0 0 1 1 0 0 1 1 1 0 0 0 0 0 0 0 0 0 0 0 0 0 0 0 0
0 0 0 0 0 0 0 0 0 0 0 0 0 0 0 0 0 0 0 0 0 0 0 0 0 1 2 1 0 0 0 1 1 0 0 0 0 0 0 0 0 0 0 0 0 0 0 0 0
0 0 0 0 0 0 0 0 0 0 0 0 0 0 0 0 0 0 0 0 0 0 0 0 0 1 2 2 1 0 0 0 0 0 0 0 0 0 0 0 0 0 0 0 0 0 0 0 0
0 0 0 0 0 0 0 0 0 0 0 0 0 0 0 0 0 1 1 2 2 1 0 0 0 0 1 2 2 1 0 0 0 0 0 0 0 0 0 0 0 0 0 0 0 0 0 0 0
0 0 0 0 0 0 0 0 0 0 0 0 0 0 0 0 0 1 2 3 4 3 2 0 0 0 1 2 3 2 1 0 0 0 0 0 0 0 0 0 0 0 0 0 0 0 0 0 0
0 0 0 0 0 0 0 0 0 0 0 0 0 0 0 0 0 0 1 2 5 5 4 2 2 2 2 2 3 2 1 0 0 0 0 0 0 0 0 0 0 0 0 0 0 0 0 0 0
0 0 0 0 0 0 0 0 0 0 0 0 0 0 0 0 0 0 1 2 4 5 5 5 5 4 3 3 3 2 1 1 0 0 0 0 0 0 0 0 0 0 0 0 0 0 0 0 0
0 0 0 0 0 0 0 0 0 0 0 0 0 0 0 0 0 1 2 3 4 4 5 6 6 6 5 4 3 2 2 2 1 0 0 0 0 0 0 0 0 0 0 0 0 0 0 0 0
Wind_Speed
1 2 2 3 3 3 7 5 4 5 5 5 5 5 6 7 6 6 4 3 4 4 4 5 6 6 7 7 8 9 9 9 10 10 10 10 10 10 11 10 10 10 10 10 10 10 10 10 10
0 1 3 2 1 5 6 5 6 7 6 5 5 5 6 7 6 6 4 3 3 4 5 7 7 7 8 8 8 9 9 9 10 10 10 9 10 10 10 10 10 10 10 10 10 10 10 11 11
2 2 2 0 3 5 7 6 7 7 5 3 4 5 5 6 5 5 4 3 4 6 7 9 8 8 8 8 8 9 9 9 9 10 10 10 10 10 10 11 11 11 11 11 10 11 11 12 12
2 2 1 4 9 8 6 7 6 6 5 4 4 6 6 5 4 5 5 4 6 6 7 9 8 8 8 8 8 8 9 9 9 10 10 10 10 11 11 11 11 11 11 11 11 11 11 12 12
1 1 4 7 9 7 6 5 4 4 5 5 4 7 7 5 5 6 6 5 6 7 7 9 9 9 9 8 8 8 9 9 10 10 10 10 10 10 11 11 11 11 11 11 12 12 12 12 12
1 1 4 7 9 7 6 4 4 6 6 6 5 7 7 6 6 6 5 5 6 6 6 7 9 8 9 9 9 9 9 10 10 10 10 10 10 11 11 11 11 11 11 12 12 12 12 12 12
1 2 5 8 8 7 5 3 4 5 6 5 3 6 7 6 5 5 5 5 5 5 5 5 6 7 8 9 10 10 10 10 10 10 10 10 10 10 10 10 11 11 11 11 12 12 12 12 12
1 2 6 6 7 7 5 4 4 4 6 5 2 4 6 8 6 5 5 5 5 5 5 5 6 5 6 8 10 9 10 10 9 9 9 8 8 9 8 10 11 11 11 11 11 12 12 12 12
1 2 5 5 5 7 6 5 5 3 6 5 4 5 7 9 8 6 5 5 4 4 4 4 5 5 5 6 7 7 8 7 5 7 7 3 5 6 7 12 10 11 11 11 10 10 9 8 10
1 3 6 4 4 6 6 4 4 5 5 5 6 6 8 8 7 6 5 5 4 4 4 4 4 4 4 4 4 4 4 4 4 5 5 4 5 6 7 10 9 9 9 9 9 7 5 2 5
4 6 6 5 5 6 6 5 3 3 4 4 5 7 9 8 6 5 4 3 3 3 3 3 3 3 3 3 3 2 2 3 3 5 5 4 4 4 4 3 4 5 4 5 5 3 5 6 6
6 7 6 6 5 4 5 5 5 3 4 4 5 7 8 7 5 4 3 3 2 2 2 2 1 2 2 3 2 2 2 2 3 3 4 3 3 3 4 3 3 3 3 4 4 3 6 6 7
7 6 6 6 5 5 6 5 4 4 4 5 7 7 6 5 4 3 3 2 2 2 3 2 1 1 2 3 2 1 2 2 3 3 2 3 2 2 3 3 3 3 3 3 3 4 6 6 6
6 7 6 5 5 4 5 4 3 3 4 5 6 6 5 4 3 3 3 3 2 2 3 3 2 1 1 2 2 2 2 2 2 2 2 3 2 2 2 3 3 3 3 3 3 5 4 5 5
6 6 6 4 3 3 3 4 3 3 5 5 5 6 5 4 3 3 3 3 2 2 2 3 2 2 2 2 2 2 1 2 2 2 2 3 2 2 2 2 3 3 2 3 3 5 4 4 5
5 4 4 3 1 2 4 2 4 3 4 4 4 5 4 4 3 3 3 2 2 2 2 3 2 3 2 2 2 1 1 1 1 1 1 2 2 2 2 2 2 2 2 2 2 2 3 4 4
4 3 3 4 1 2 3 1 3 3 4 4 4 4 4 4 4 3 3 3 2 2 2 3 3 3 3 2 2 1 1 1 1 1 1 1 1 1 2 1 1 2 2 2 2 2 2 3 3
3 2 2 2 2 2 3 2 2 3 4 4 4 4 4 4 4 4 4 3 3 3 3 3 3 3 4 3 2 2 1 1 1 1 1 1 0 1 1 1 2 2 2 2 2 3 2 2 2
1 1 1 1 1 3 4 3 2 4 4 4 4 4 4 3 3 3 4 4 4 4 4 3 4 4 3 2 2 2 2 1 1 1 1 1 0 0 1 1 1 1 1 1 2 2 3 2 2
3 3 1 2 2 3 3 4 3 3 4 4 4 4 3 3 3 3 4 5 4 4 4 4 4 4 4 2 1 1 1 1 1 1 1 0 0 1 1 2 1 1 1 2 2 2 1 1 1
3 3 2 1 2 4 4 4 4 3 3 3 3 3 3 3 3 3 5 5 5 5 5 4 4 5 4 4 2 2 2 2 2 2 1 0 0 1 1 1 1 1 2 2 2 2 2 2 1
2 1 3 4 5 2 4 3 2 3 3 3 3 3 3 3 3 3 4 5 5 5 5 5 5 5 5 4 3 3 2 2 2 1 1 2 1 1 1 1 1 1 1 2 2 2 2 2 1
1 0 3 5 5 5 4 5 2 3 1 1 2 3 3 2 2 2 3 4 5 5 5 5 5 5 5 4 4 3 2 2 1 2 2 2 2 1 2 1 2 1 1 2 2 2 2 2 2
2 4 4 5 6 5 3 5 0 2 1 1 1 1 2 2 1 1 1 2 3 4 5 4 5 4 4 5 5 4 3 3 3 3 2 2 2 2 2 2 2 2 1 2 2 2 2 2 2
5 5 4 5 4 2 1 4 1 3 2 2 1 1 1 1 1 1 1 2 2 4 5 5 5 5 5 5 4 4 3 3 3 3 2 2 2 2 2 2 2 1 1 1 2 2 2 2 2
4 6 5 3 3 1 3 4 3 3 2 1 1 1 1 1 1 1 1 1 2 3 4 6 6 5 5 5 4 4 4 3 2 3 2 2 2 1 1 2 1 1 1 1 1 2 2 2 2
4 4 4 6 4 5 3 2 3 3 1 1 2 2 2 1 1 1 1 1 2 2 4 5 5 5 5 5 4 4 4 3 3 3 2 2 2 2 2 2 2 2 2 2 2 2 2 1 1
3 2 4 5 5 5 4 5 2 2 1 1 1 2 2 2 1 1 1 1 1 2 2 3 4 5 4 4 4 3 4 4 3 3 3 3 3 3 3 3 3 3 2 2 2 2 1 1 1
5 5 5 5 5 6 4 1 3 1 1 0 1 2 2 2 2 1 1 1 1 2 2 2 3 4 4 4 4 5 4 4 4 4 3 3 3 3 4 4 4 4 4 3 3 3 3 3 3
6 6 7 7 6 6 6 1 5 1 1 0 0 2 2 2 2 2 2 2 1 1 1 1 2 3 3 3 4 4 4 4 4 4 3 3 3 4 4 4 4 4 4 4 4 4 4 4 3
Wind_Direction
180 175 215 235 212 99 77 71 77 91 76 62 53 53 61 44 32 64 74 48 35 37 44 66 55 56 62 63 66 67 69 70 73 75 76 78 80 81 78 76 75 72 69 68 68 68 67 68 66
149 184 224 243 211 108 86 81 82 70 90 105 81 67 71 70 62 83 91 60 44 50 52 60 63 66 68 68 70 69 71 74 73 72 76 80 80 77 76 75 73 71 69 68 67 70 71 69 66
163 244 272 80 71 74 92 89 92 95 98 94 83 59 52 67 73 86 84 88 74 66 63 69 58 67 69 70 72 69 72 74 74 74 77 80 79 76 73 72 71 69 68 69 70 71 73 69 65
216 204 165 89 88 72 87 106 112 115 98 74 94 88 77 58 64 87 99 93 82 75 71 72 57 63 67 73 74 74 73 73 72 73 74 76 76 74 73 70 69 68 67 68 72 73 72 70 66
239 221 118 101 91 90 90 94 113 98 88 84 90 93 90 81 87 97 100 88 82 76 73 77 61 58 61 69 74 75 76 75 75 73 73 76 76 73 71 71 70 70 69 70 73 71 70 68 65
209 198 120 107 102 104 98 95 106 91 97 103 100 99 93 104 108 105 102 93 85 81 76 83 82 63 58 63 69 72 76 77 76 74 72 75 76 74 70 70 70 72 73 73 73 71 70 66 64
62 88 100 111 116 112 97 94 88 90 92 85 94 104 113 125 116 116 108 100 91 84 79 77 86 93 85 73 68 72 74 74 74 73 73 76 76 74 73 73 72 75 77 76 75 73 71 67 64
15 126 116 116 122 108 107 102 78 73 83 85 93 106 127 138 136 130 115 106 95 86 81 78 81 75 80 89 80 75 73 71 74 75 74 77 92 92 87 86 75 75 76 77 75 74 73 70 64
249 140 113 111 118 114 124 118 96 88 106 103 80 71 106 132 144 141 131 121 104 89 82 80 84 81 76 76 87 93 95 86 101 98 94 107 89 86 89 74 77 75 74 74 75 76 78 83 82
60 97 88 88 103 117 122 110 115 133 120 112 109 106 124 144 156 154 147 135 123 107 92 85 81 82 80 76 82 71 77 81 74 78 82 70 68 67 72 90 84 82 85 88 78 86 105 80 77
69 85 102 105 104 120 119 108 107 124 104 108 129 139 145 153 163 160 146 131 116 106 95 85 83 86 81 86 69 65 71 75 71 68 78 71 71 86 78 81 98 92 91 80 90 93 61 64 63
97 87 96 105 108 120 114 114 106 90 73 83 107 133 148 160 163 166 157 149 145 133 122 105 101 106 100 90 77 56 70 71 68 65 70 78 70 63 71 73 63 60 65 66 62 59 68 64 68
102 100 89 99 111 113 111 111 102 94 92 109 120 136 149 159 165 165 161 166 160 153 149 149 159 125 102 93 81 69 65 55 79 69 58 77 82 79 78 75 64 55 58 73 68 70 70 65 64
99 108 106 100 106 117 120 116 119 105 125 129 135 143 151 153 166 167 166 167 162 150 145 145 170 148 116 102 100 74 71 78 55 65 64 80 85 89 83 82 75 63 54 63 74 73 75 72 69
131 130 125 112 114 123 155 141 129 119 155 151 150 148 151 156 163 179 173 177 164 141 147 141 145 164 152 118 94 77 77 85 69 63 56 79 80 86 86 80 83 73 68 74 71 82 79 80 83
162 170 151 118 126 162 228 148 108 136 173 171 160 152 170 176 185 187 179 184 171 161 154 141 155 179 164 142 130 106 86 71 75 72 45 71 92 88 87 94 94 88 77 75 88 89 98 91 79
181 174 149 136 137 184 217 173 116 167 189 188 184 172 182 189 199 196 193 192 183 176 170 166 162 169 159 150 153 138 107 80 64 77 66 44 78 103 116 104 119 110 101 88 89 92 90 95 88
159 163 158 151 128 200 212 213 168 172 203 201 190 190 193 199 202 200 200 197 190 182 184 179 164 171 157 170 178 150 132 117 94 84 86 57 34 112 122 159 154 128 120 113 115 112 106 97 102
145 192 184 114 140 228 227 237 226 183 203 219 210 205 207 212 195 193 197 198 198 195 194 187 185 172 173 178 189 184 171 172 146 124 115 124 140 136 140 183 153 144 134 133 130 122 128 121 113
205 217 199 142 152 241 252 258 240 204 210 226 232 214 215 226 200 189 201 201 204 202 203 197 196 179 180 188 191 185 174 170 121 123 109 109 149 159 155 176 165 161 158 166 155 150 151 129 213
219 256 265 243 186 210 252 234 199 174 186 203 226 232 223 230 238 207 203 205 207 208 204 206 198 183 181 183 173 163 166 185 171 164 154 145 179 164 167 175 185 180 192 182 188 184 189 184 195
243 277 251 235 241 219 250 278 149 164 177 189 205 210 220 225 240 228 210 206 207 209 200 205 196 188 181 183 190 195 209 207 190 174 154 165 170 176 176 178 189 192 210 191 202 207 215 218 207
333 19 234 239 252 251 225 265 126 143 178 174 186 195 206 218 237 228 214 209 205 200 197 197 189 187 182 189 188 207 212 216 193 183 170 177 154 173 181 197 207 201 207 212 215 219 237 236 244
176 186 185 215 239 240 248 258 165 93 13 26 106 154 185 208 219 232 204 192 187 184 184 188 187 184 181 188 191 197 203 212 205 204 193 187 165 174 180 195 210 212 214 208 220 223 223 247 249
222 242 227 212 214 220 121 252 59 55 27 355 357 41 73 140 189 200 184 182 175 178 180 183 185 187 187 193 195 193 198 212 219 215 205 207 190 185 182 195 213 213 213 217 219 224 228 230 240
236 261 273 283 273 239 194 240 99 76 42 4 3 43 59 83 101 139 164 165 179 179 182 189 189 192 192 197 200 204 195 206 217 221 215 215 208 194 184 197 203 198 200 196 198 227 229 236 229
230 238 290 286 275 269 227 183 160 147 120 75 73 70 52 49 61 88 127 152 168 175 187 194 192 192 195 199 200 208 207 206 211 222 216 217 216 203 201 201 200 193 192 203 194 214 206 224 230
294 228 229 251 267 260 243 233 209 158 130 77 63 59 41 39 43 57 91 131 147 162 179 181 193 192 195 197 198 202 211 212 219 219 222 221 216 208 209 209 211 204 196 204 211 215 206 201 188
200 211 235 250 270 281 273 189 71 58 56 35 46 54 38 25 26 40 60 104 120 138 152 172 176 190 194 199 200 204 208 207 211 218 220 221 221 215 216 213 215 211 207 203 206 213 204 211 208
259 246 241 255 248 257 277 283 96 74 56 23 62 66 53 40 39 48 60 76 94 116 147 172 185 193 196 202 208 211 211 210 216 218 218 218 218 216 216 216 217 215 216 217 216 214 212 217 222